[[{"header":{"parameterUnit":"m.s-1","parameterCategory":1,"la1":30.2991,"la2":30.254,"lo1":-89.0895,"lo2":-89.0444,"dy":0.0017,"dx":0.0017,"nx":28,"ny":28,"refTime":"2025-03-25T09:00:00:Z","depth":0,"parameterNumber":2,"parameterNumberName":"U-component_of_WINDS"},"data":[0,0,0,0,0,0,0,0,0,0,0,0,0,0,0,0,0,0,0,0,0,0,0,0,0,0,0,0,0,0,0,0,0,0,0,0,0,0,0,0,0,0,0,0,0,0,0,0,0,0,0,0,0,0,0,0,0,0,1.3566,1.3568,0,1.3688,1.3689,1.369,1.3701,1.37,1.3699,1.3698,1.3825,1.3829,1.3834,0,0,0,0,0,0,0,0,0,0,0,0,0,1.3348,1.3351,1.3566,1.3568,1.3569,1.3687,1.3689,1.3691,1.3702,1.37,1.3698,1.3697,1.3823,1.3829,1.3834,0,0,0,0,0,0,0,0,0,0,0,0,0,1.3453,1.3353,1.3566,1.3589,1.3592,1.3687,1.3689,1.3691,1.3702,1.37,1.3698,1.3696,1.3821,1.3828,1.3835,1.3916,0,0,1.3856,1.3859,0,0,0,0,0,0,0,0,1.3447,1.3461,1.3584,1.3588,1.3591,1.3677,1.3659,1.3767,1.3702,1.366,1.3698,1.3695,1.3778,1.3788,1.3815,1.3922,1.3928,1.3857,1.3861,1.3864,1.3866,0,0,0,0,0,0,0,1.344,1.3456,1.3614,1.3586,1.359,1.3594,1.3607,1.3679,1.3728,1.3664,1.3665,1.3679,1.3779,1.3808,1.3818,1.393,1.3856,1.3863,1.3867,1.3869,1.4111,1.4113,0,0,0,0,0,0,1.3428,1.345,1.3611,1.3618,1.3513,1.36,1.3614,1.3652,1.3728,1.3737,1.3681,1.3679,1.3797,1.381,1.3823,1.3923,1.3864,1.387,1.3874,1.4108,1.4111,1.4114,0,0,0,0,0,0,1.3423,1.3442,1.3606,1.3534,1.3555,1.3606,1.3648,1.3655,1.3684,1.374,1.3749,1.3701,1.3796,1.3813,1.3893,1.3928,1.3873,1.3879,1.4106,1.4109,1.4112,1.4125,0,0,0,0,0,0,1.3417,1.344,1.3471,1.3535,1.3559,1.3673,1.365,1.3659,1.3696,1.3695,1.3762,1.3771,1.3796,1.3883,1.39,1.3936,1.3885,1.4103,1.4107,1.4111,1.4122,1.4128,1.4134,0,0,0,0,0,1.3409,1.347,1.3472,1.3492,1.3598,1.3675,1.3689,1.3716,1.3698,1.373,1.3766,1.3769,1.3921,1.3891,1.391,1.3949,1.4101,1.4106,1.4111,1.4119,1.4127,1.4134,0,0,0,0,0,0,1.3409,1.3479,1.3482,1.3565,1.3614,1.3677,1.3717,1.3723,1.3779,1.3776,1.3808,1.3823,1.3902,1.3934,1.3898,1.4032,1.4009,1.4019,1.4009,1.4017,1.4023,1.4014,1.3891,0,0,0,0,0,1.3419,1.3474,1.3532,1.3601,1.3625,1.3667,1.3701,1.3718,1.377,1.3791,1.3832,1.3884,1.3943,1.3982,1.404,1.4126,1.4142,1.4163,1.4169,1.4174,1.4182,1.4231,1.4241,1.4131,1.413,1.413,0,0,1.344,1.3485,1.3518,1.3602,1.3641,1.3699,1.3684,1.3746,1.3789,1.38,1.3878,1.3911,1.397,1.4054,1.4093,1.4083,1.4216,1.4181,1.4184,1.4189,1.4237,1.4248,1.4257,1.4134,1.4133,1.4133,0,0,1.3507,1.3546,1.3607,1.3648,1.3707,1.3735,1.375,1.3812,1.3834,1.3912,1.3922,1.3975,1.4076,1.4119,1.4153,1.4238,1.4242,1.4256,1.4288,1.4336,1.4344,1.4352,1.4383,1.4393,1.4263,1.4263,1.4263,0,1.3526,1.3612,1.3638,1.37,1.3737,1.3749,1.3812,1.385,1.3926,1.3952,1.3939,1.4068,1.4108,1.4203,1.4223,1.4251,1.4269,1.4248,1.4341,1.4349,1.4357,1.4386,1.4398,1.4264,1.4264,1.4264,1.4264,0,1.3632,1.3692,1.3735,1.3807,1.3849,1.3911,1.3948,1.3987,1.4,1.403,1.411,1.416,1.4228,1.4252,1.4265,1.4348,1.434,1.4334,1.4311,1.4368,1.4396,1.4408,1.4266,1.4266,1.4265,1.4265,0,0,1.3703,1.3789,1.3805,1.3838,1.3905,1.3953,1.4016,1.4082,1.4115,1.4168,1.4222,1.4308,1.4303,1.4342,1.4361,1.4402,1.4467,1.4391,1.4393,1.4404,1.4562,1.4566,1.4579,1.447,1.4473,1.4474,1.4557,0,1.3778,1.389,1.3916,1.4012,1.4068,1.408,1.4136,1.4183,1.4213,1.4266,1.4299,1.4359,1.4347,1.4371,1.4413,1.445,1.4499,1.4444,1.4522,1.4525,1.4507,1.4594,1.4599,1.4674,1.4568,1.457,1.4572,0,1.3881,1.3935,1.4036,1.4097,1.4121,1.417,1.4233,1.4283,1.4338,1.4357,1.4401,1.4416,1.4483,1.4457,1.4551,1.4513,1.4547,1.457,1.4573,1.4582,1.4552,1.4605,1.4699,1.4711,1.4589,1.4588,1.4587,0,1.3923,1.4021,1.4094,1.4122,1.4195,1.4229,1.4261,1.4314,1.4352,1.4408,1.4433,1.4496,1.4531,1.458,1.4611,1.4589,1.4703,1.4679,1.4721,1.472,1.4744,1.4742,1.4845,1.4766,1.4765,1.4765,1.4765,0,1.4004,1.4066,1.4114,1.4159,1.4229,1.4259,1.4328,1.436,1.4407,1.446,1.4475,1.4524,1.4563,1.4618,1.4643,1.4718,1.4733,1.4751,1.4757,1.475,1.4747,1.4772,1.4768,1.4768,1.4768,1.4767,1.4766,0,1.4063,1.4097,1.4178,1.424,1.4257,1.4306,1.436,1.4405,1.4434,1.4501,1.4518,1.4566,1.4631,1.4668,1.475,1.4767,1.485,1.4854,1.4831,1.4834,1.4874,1.487,1.4996,1.5015,1.4922,1.4923,1.4924,0,1.4112,1.416,1.4227,1.4263,1.4295,1.4353,1.4392,1.4423,1.4464,1.453,1.4568,1.4634,1.4688,1.4793,1.4835,1.4899,1.4904,1.4944,1.4914,1.4905,1.4905,1.4902,1.4907,1.4949,1.495,1.4951,1.4951,0,1.4197,1.4212,1.4267,1.4328,1.4374,1.4424,1.4474,1.4503,1.4543,1.4588,1.4654,1.4697,1.4781,1.4847,1.4914,1.4948,1.4957,1.4961,1.4974,1.4967,1.4952,1.4961,1.4846,1.4958,1.4957,1.4956,1.4956,1.4956,1.4253,1.4296,1.435,1.4411,1.4452,1.4498,1.4543,1.4579,1.4635,1.4705,1.4721,1.4791,1.4846,1.4937,1.4973,1.503,1.5022,1.5041,1.5046,1.505,1.5052,1.4943,1.5042,1.5042,1.5042,1.5042,1.5042,0,1.4338,1.4374,1.443,1.4498,1.4547,1.455,1.4606,1.4646,1.4708,1.4758,1.4811,1.4888,1.4953,1.5,1.5066,1.5102,1.5108,1.5119,1.5116,1.5124,1.5054,1.5037,1.5113,1.5113,1.5113,1.5113,1.5113,1.5113,1.4389,1.4462,1.4483,1.4577,1.4613,1.4681,1.4713,1.4756,1.4796,1.4881,1.4934,1.4965,1.5014,1.5084,1.5144,1.5156,1.518,1.519,1.5203,1.5137,1.5129,1.5122,1.5105,1.5195,1.5195,1.5268,1.5269,1.5269]},{"header":{"parameterUnit":"m.s-1","parameterCategory":1,"la1":30.2991,"la2":30.254,"lo1":-89.0895,"lo2":-89.0444,"dy":0.0017,"dx":0.0017,"nx":28,"ny":28,"refTime":"2025-03-25T09:00:00:Z","depth":0,"parameterNumber":3,"parameterNumberName":"V-component_of_WINDS"},"data":[0,0,0,0,0,0,0,0,0,0,0,0,0,0,0,0,0,0,0,0,0,0,0,0,0,0,0,0,0,0,0,0,0,0,0,0,0,0,0,0,0,0,0,0,0,0,0,0,0,0,0,0,0,0,0,0,0,0,-0.0274,-0.0274,0,-0.0213,-0.0213,-0.0212,-0.0213,-0.0214,-0.0215,-0.0216,-0.0153,-0.015,-0.0148,0,0,0,0,0,0,0,0,0,0,0,0,0,-0.0391,-0.0389,-0.0274,-0.0273,-0.0273,-0.0213,-0.0213,-0.0212,-0.0213,-0.0214,-0.0215,-0.0216,-0.0154,-0.0151,-0.0148,0,0,0,0,0,0,0,0,0,0,0,0,0,-0.0336,-0.0389,-0.0274,-0.0266,-0.0265,-0.0214,-0.0213,-0.0211,-0.0213,-0.0214,-0.0216,-0.0217,-0.0155,-0.0151,-0.0147,-0.01,0,0,-0.0136,-0.0135,0,0,0,0,0,0,0,0,-0.034,-0.0332,-0.0268,-0.0267,-0.0265,-0.0222,-0.0231,-0.0174,-0.0213,-0.0233,-0.0216,-0.0217,-0.0175,-0.017,-0.0155,-0.0097,-0.0094,-0.0136,-0.0134,-0.0132,-0.0131,0,0,0,0,0,0,0,-0.0343,-0.0335,-0.025,-0.0267,-0.0266,-0.0266,-0.0259,-0.022,-0.0198,-0.0231,-0.0231,-0.0224,-0.0174,-0.0159,-0.0154,-0.0093,-0.0136,-0.0133,-0.013,-0.0129,0.0008,0.001,0,0,0,0,0,0,-0.0349,-0.0338,-0.0252,-0.0248,-0.0306,-0.0263,-0.0255,-0.0235,-0.0198,-0.0194,-0.0223,-0.0224,-0.0165,-0.0158,-0.0152,-0.0093,-0.0132,-0.0129,-0.0126,0.0007,0.0009,0.001,0,0,0,0,0,0,-0.0351,-0.0341,-0.0254,-0.0293,-0.0282,-0.0259,-0.0236,-0.0233,-0.0218,-0.0192,-0.0188,-0.0211,-0.0165,-0.0157,-0.0113,-0.0091,-0.0127,-0.0124,0.0005,0.0007,0.0009,0.0025,0,0,0,0,0,0,-0.0355,-0.0342,-0.0324,-0.0293,-0.028,-0.0216,-0.0235,-0.0231,-0.0211,-0.0212,-0.018,-0.0176,-0.0166,-0.0118,-0.0109,-0.0086,-0.0121,0.0003,0.0006,0.0009,0.0023,0.0028,0.0032,0,0,0,0,0,-0.0359,-0.0322,-0.0323,-0.0312,-0.0257,-0.0215,-0.0208,-0.0197,-0.021,-0.0191,-0.0174,-0.0177,-0.0095,-0.0113,-0.0103,-0.0079,0.0002,0.0005,0.0009,0.0021,0.0027,0.0032,0,0,0,0,0,0,-0.035,-0.0317,-0.0318,-0.027,-0.0245,-0.0215,-0.0191,-0.0191,-0.0163,-0.0165,-0.0153,-0.0146,-0.0101,-0.0086,-0.0107,-0.0031,-0.0048,-0.0042,-0.0042,-0.0036,-0.0032,-0.0036,-0.0118,0,0,0,0,0,-0.0343,-0.0312,-0.0285,-0.0245,-0.0233,-0.0214,-0.0196,-0.019,-0.0164,-0.0153,-0.0133,-0.0108,-0.0076,-0.0056,-0.0025,0.0025,0.0032,0.0046,0.0051,0.0054,0.0059,0.0087,0.0094,0.0021,0.0021,0.0021,0,0,-0.0327,-0.0305,-0.0287,-0.0243,-0.0223,-0.0191,-0.0205,-0.0171,-0.0147,-0.0148,-0.0104,-0.0089,-0.006,-0.0012,0.0009,0.0002,0.0081,0.0058,0.0061,0.0064,0.0091,0.0098,0.0104,0.0023,0.0023,0.0022,0,0,-0.0282,-0.0262,-0.0227,-0.0207,-0.0177,-0.0165,-0.0156,-0.0126,-0.0116,-0.0073,-0.0072,-0.0044,0.001,0.0031,0.0049,0.0101,0.0101,0.0111,0.0135,0.0162,0.0168,0.0173,0.0193,0.0199,0.0115,0.0116,0.0116,0,-0.0265,-0.0217,-0.0208,-0.0173,-0.0154,-0.0154,-0.0117,-0.0098,-0.006,-0.0046,-0.0056,0.0012,0.0032,0.0084,0.0097,0.0111,0.0122,0.0108,0.0166,0.0171,0.0176,0.0195,0.0203,0.0117,0.0117,0.0116,0.0116,0,-0.0199,-0.0165,-0.014,-0.0103,-0.0081,-0.0045,-0.003,-0.0009,-0.0006,0.0007,0.0052,0.0075,0.0111,0.0123,0.0127,0.0176,0.0171,0.0163,0.0147,0.0184,0.0202,0.021,0.0118,0.0118,0.0118,0.0117,0,0,-0.0145,-0.0104,-0.0094,-0.0077,-0.0044,-0.0018,0.0017,0.0051,0.007,0.0096,0.0126,0.0171,0.0165,0.0185,0.0191,0.0215,0.0256,0.0204,0.0205,0.0214,0.0313,0.0319,0.0327,0.0255,0.0256,0.0257,0.031,0,-0.0095,-0.0032,-0.0023,0.0033,0.0064,0.0064,0.0095,0.0118,0.0131,0.016,0.0174,0.0206,0.0194,0.0206,0.023,0.0246,0.0276,0.0242,0.0284,0.0285,0.0278,0.0337,0.0343,0.0393,0.0317,0.0319,0.032,0,-0.0028,0.0,0.0059,0.0087,0.0101,0.0128,0.0161,0.0188,0.0214,0.0222,0.0244,0.0247,0.0284,0.0264,0.0315,0.0292,0.0309,0.032,0.0322,0.0328,0.0306,0.0345,0.0408,0.0416,0.0331,0.033,0.0329,0,0.0007,0.0059,0.0101,0.0115,0.0149,0.0169,0.0184,0.0209,0.023,0.0257,0.0271,0.0302,0.032,0.0345,0.0357,0.0341,0.0407,0.0388,0.0415,0.0415,0.0431,0.043,0.0499,0.0439,0.0439,0.0439,0.0439,0,0.0062,0.0099,0.0117,0.0143,0.0184,0.0194,0.0234,0.0248,0.0271,0.03,0.0301,0.0328,0.0341,0.037,0.038,0.0421,0.0429,0.0436,0.0439,0.0437,0.0436,0.045,0.0447,0.0441,0.0441,0.044,0.044,0,0.0109,0.0122,0.0169,0.0197,0.0205,0.0234,0.0258,0.0283,0.0295,0.0332,0.0341,0.036,0.0395,0.0408,0.045,0.0457,0.0505,0.0504,0.0496,0.0497,0.0523,0.0521,0.0605,0.0617,0.0548,0.0549,0.0549,0,0.0144,0.0172,0.0203,0.0223,0.0238,0.027,0.029,0.0301,0.0322,0.0354,0.0376,0.041,0.0438,0.0493,0.0511,0.0543,0.0543,0.057,0.0548,0.0546,0.0545,0.0544,0.0547,0.0575,0.0576,0.0576,0.0577,0,0.0205,0.0211,0.024,0.0272,0.0296,0.0322,0.0347,0.0363,0.0377,0.0401,0.0436,0.0458,0.05,0.0535,0.0567,0.0583,0.0583,0.0583,0.0591,0.0591,0.0586,0.059,0.0509,0.0582,0.0581,0.0581,0.0581,0.058,0.0248,0.0273,0.0299,0.0332,0.0352,0.0375,0.04,0.0415,0.0445,0.0481,0.0485,0.0523,0.0548,0.0592,0.0609,0.0639,0.0632,0.0644,0.0647,0.065,0.0652,0.058,0.0645,0.0645,0.0645,0.0645,0.0645,0,0.0311,0.0327,0.0357,0.0392,0.0418,0.0414,0.0441,0.0463,0.0497,0.0521,0.0548,0.0589,0.0622,0.0642,0.0675,0.0695,0.0696,0.0703,0.0703,0.0707,0.0656,0.0646,0.0702,0.0702,0.0702,0.0702,0.0702,0.0702,0.0346,0.0389,0.0397,0.0449,0.0465,0.0503,0.0519,0.054,0.0559,0.0604,0.0632,0.0645,0.0667,0.0702,0.0732,0.0737,0.075,0.0758,0.0763,0.0716,0.071,0.0704,0.0695,0.0761,0.0761,0.0811,0.0812,0.0812]}]]